Volver al catálogo

COSMOS 2233

ActivoNavegaciónPO
NORAD 22487·PAYLOAD·🇷🇺 Russia

Lanzado Feb 9, 1993 desde Plesetsk Cosmodrome

Loading…

Próximos Pases (próximas 24 horas)

TLE

ActualizadoSource: Space-Track

Época: Sep 14, 2026, 22:27 UTC

1 22487U 93008A   26257.93548792  .00000058  00000-0  44337-4 0  9990
2 22487  82.9424 115.9993 0037002 223.5256 200.1159 13.76046478682367

Sigue COSMOS 2233 en tiempo real con AllMySat

Download on the App Store